Location: Edinburgh
(55.9500°N, 3.1600°W)
Time: 08:23:59
(UTC+00:00)

Envisat - Pass Details

Date: 17 February 2019
Orbit: 764 x 766 km, 98.2° (Epoch: 21 March)

Event Time Altitude Azimuth Distance (km) Brightness Sun altitude
Rises 19:04:44 0° 178° (S) 3,225 6.2 -15.1°
Reaches altitude 10° 19:07:05 10° 184° (S) 2,303 5.5 -15.5°
Maximum altitude 19:12:02 52° 260° (W) 954 3.9 -16.2°
Drops below altitude 10° 19:17:02 10° 337° (NNW) 2,319 5.8 -16.9°
Sets 19:19:25 0° 343° (NNW) 3,249 6.5 -17.2°
